TimeEDT,TemperatureF,Dew PointF,Humidity,Sea Level PressureIn,VisibilityMPH,Wind Direction,Wind SpeedMPH,Gust SpeedMPH,PrecipitationIn,Events,Conditions,WindDirDegrees,DateUTC
12:15 AM,55.4,51.8,88,30.41,10.0,NNE,3.5,-,N/A,,Clear,30,2013-08-25 04:15:00
12:35 AM,55.4,51.8,88,30.41,10.0,Calm,Calm,-,N/A,,Mostly Cloudy,0,2013-08-25 04:35:00
12:55 AM,55.4,53.6,94,30.41,10.0,Calm,Calm,-,N/A,,Overcast,0,2013-08-25 04:55:00
1:15 AM,55.4,53.6,94,30.41,10.0,Calm,Calm,-,N/A,,Overcast,0,2013-08-25 05:15:00
1:35 AM,55.4,53.6,94,30.41,10.0,Calm,Calm,-,N/A,,Overcast,0,2013-08-25 05:35:00
1:55 AM,55.4,51.8,88,30.40,10.0,Calm,Calm,-,N/A,,Scattered Clouds,0,2013-08-25 05:55:00
2:15 AM,53.6,51.8,94,30.40,7.0,Calm,Calm,-,N/A,,Clear,0,2013-08-25 06:15:00
2:35 AM,53.6,51.8,94,30.40,7.0,Calm,Calm,-,N/A,,Clear,0,2013-08-25 06:35:00
2:55 AM,53.6,51.8,94,30.40,7.0,Calm,Calm,-,N/A,,Scattered Clouds,0,2013-08-25 06:55:00
3:15 AM,51.8,50.0,94,30.40,4.0,Calm,Calm,-,N/A,,Scattered Clouds,0,2013-08-25 07:15:00
3:35 AM,51.8,50.0,94,30.40,0.5,Calm,Calm,-,N/A,Fog,Fog,0,2013-08-25 07:35:00
3:55 AM,51.8,50.0,94,30.40,0.2,Calm,Calm,-,N/A,Fog,Fog,0,2013-08-25 07:55:00
4:15 AM,51.8,50.0,94,30.40,0.2,NNE,5.8,-,N/A,Fog,Fog,20,2013-08-25 08:15:00
4:35 AM,51.8,51.8,100,30.42,0.5,NNE,5.8,-,N/A,Fog,Fog,20,2013-08-25 08:35:00
4:55 AM,51.8,50.0,94,30.42,0.5,NE,3.5,-,N/A,Fog,Fog,40,2013-08-25 08:55:00
5:15 AM,51.8,50.0,94,30.42,0.5,Calm,Calm,-,N/A,Fog,Fog,0,2013-08-25 09:15:00
5:35 AM,51.8,50.0,94,30.43,0.5,Calm,Calm,-,N/A,Fog,Fog,0,2013-08-25 09:35:00
5:55 AM,50.0,48.2,94,30.44,0.2,NNE,4.6,-,N/A,Fog,Fog,20,2013-08-25 09:55:00
6:15 AM,50.0,48.2,94,30.45,0.2,Calm,Calm,-,N/A,Fog,Fog,0,2013-08-25 10:15:00
6:35 AM,51.8,50.0,94,30.46,0.2,Calm,Calm,-,N/A,Fog,Fog,0,2013-08-25 10:35:00
6:55 AM,50.0,48.2,94,30.47,0.2,Calm,Calm,-,N/A,Fog,Fog,0,2013-08-25 10:55:00
7:15 AM,50.0,48.2,94,30.47,0.2,Calm,Calm,-,N/A,Fog,Fog,0,2013-08-25 11:15:00
7:35 AM,50.0,50.0,100,30.47,0.2,Calm,Calm,-,N/A,Fog,Fog,0,2013-08-25 11:35:00
7:55 AM,51.8,50.0,94,30.48,0.2,Calm,Calm,-,N/A,Fog,Fog,0,2013-08-25 11:55:00
8:15 AM,51.8,50.0,94,30.48,0.2,NNE,3.5,-,N/A,Fog,Fog,30,2013-08-25 12:15:00
8:35 AM,53.6,51.8,94,30.47,0.5,Calm,Calm,-,N/A,Fog,Fog,0,2013-08-25 12:35:00
8:55 AM,53.6,53.6,100,30.48,7.0,Calm,Calm,-,N/A,,Mostly Cloudy,0,2013-08-25 12:55:00
9:15 AM,55.4,53.6,94,30.48,10.0,Calm,Calm,-,N/A,,Scattered Clouds,0,2013-08-25 13:15:00
9:35 AM,55.4,55.4,100,30.48,10.0,NNE,3.5,-,N/A,,Clear,20,2013-08-25 13:35:00
9:55 AM,59.0,55.4,88,30.48,10.0,Calm,Calm,-,N/A,,Clear,0,2013-08-25 13:55:00
10:15 AM,60.8,53.6,77,30.47,10.0,Calm,Calm,-,N/A,,Clear,0,2013-08-25 14:15:00
10:35 AM,64.4,55.4,73,30.47,10.0,Calm,Calm,-,N/A,,Clear,0,2013-08-25 14:35:00
10:55 AM,66.2,55.4,68,30.47,10.0,Calm,Calm,-,N/A,,Clear,0,2013-08-25 14:55:00
11:15 AM,66.2,53.6,64,30.48,10.0,Calm,Calm,-,N/A,,Clear,0,2013-08-25 15:15:00
11:35 AM,68.0,51.8,56,30.47,10.0,South,3.5,-,N/A,,Clear,190,2013-08-25 15:35:00
11:55 AM,68.0,51.8,56,30.47,10.0,Calm,Calm,-,N/A,,Scattered Clouds,0,2013-08-25 15:55:00
12:15 PM,68.0,51.8,56,30.46,10.0,Calm,Calm,-,N/A,,Scattered Clouds,0,2013-08-25 16:15:00
12:35 PM,68.0,51.8,56,30.45,10.0,SW,3.5,-,N/A,,Scattered Clouds,220,2013-08-25 16:35:00
12:55 PM,68.0,51.8,56,30.45,10.0,NNW,4.6,-,N/A,,Mostly Cloudy,340,2013-08-25 16:55:00
1:15 PM,69.8,51.8,53,30.45,10.0,Calm,Calm,-,N/A,,Mostly Cloudy,0,2013-08-25 17:15:00
1:35 PM,69.8,51.8,53,30.45,10.0,Calm,Calm,-,N/A,,Scattered Clouds,0,2013-08-25 17:35:00
1:55 PM,71.6,51.8,50,30.44,10.0,NNE,4.6,-,N/A,,Mostly Cloudy,30,2013-08-25 17:55:00
2:15 PM,71.6,51.8,50,30.43,10.0,Calm,Calm,-,N/A,,Mostly Cloudy,0,2013-08-25 18:15:00
2:35 PM,73.4,51.8,47,30.42,10.0,ENE,4.6,-,N/A,,Mostly Cloudy,70,2013-08-25 18:35:00
2:55 PM,71.6,50.0,46,30.42,10.0,East,3.5,-,N/A,,Mostly Cloudy,80,2013-08-25 18:55:00
3:15 PM,69.8,50.0,49,30.41,10.0,Calm,Calm,-,N/A,,Overcast,0,2013-08-25 19:15:00
3:35 PM,71.6,48.2,43,30.40,10.0,ENE,8.1,-,N/A,,Mostly Cloudy,70,2013-08-25 19:35:00
3:55 PM,71.6,46.4,41,30.41,10.0,Calm,Calm,-,N/A,,Scattered Clouds,0,2013-08-25 19:55:00
4:15 PM,71.6,46.4,41,30.40,10.0,East,3.5,-,N/A,,Scattered Clouds,90,2013-08-25 20:15:00
4:35 PM,71.6,50.0,46,30.40,10.0,SE,3.5,-,N/A,,Clear,140,2013-08-25 20:35:00
4:55 PM,73.4,44.6,36,30.40,10.0,Calm,Calm,-,N/A,,Clear,0,2013-08-25 20:55:00
5:15 PM,73.4,48.2,41,30.39,10.0,SSE,3.5,-,N/A,,Clear,150,2013-08-25 21:15:00
5:35 PM,71.6,46.4,41,30.38,10.0,SSW,4.6,-,N/A,,Clear,200,2013-08-25 21:35:00
5:55 PM,71.6,48.2,43,30.38,10.0,SSE,3.5,-,N/A,,Clear,150,2013-08-25 21:55:00
6:15 PM,71.6,50.0,46,30.38,10.0,SE,4.6,-,N/A,,Clear,130,2013-08-25 22:15:00
6:35 PM,71.6,50.0,46,30.38,10.0,Calm,Calm,-,N/A,,Clear,0,2013-08-25 22:35:00
6:55 PM,69.8,50.0,49,30.38,10.0,Calm,Calm,-,N/A,,Clear,0,2013-08-25 22:55:00
7:15 PM,69.8,51.8,53,30.36,10.0,Calm,Calm,-,N/A,,Clear,0,2013-08-25 23:15:00
7:35 PM,68.0,50.0,52,30.37,10.0,Calm,Calm,-,N/A,,Clear,0,2013-08-25 23:35:00
7:55 PM,66.2,53.6,64,30.37,10.0,Calm,Calm,-,N/A,,Clear,0,2013-08-25 23:55:00
8:15 PM,64.4,51.8,64,30.37,10.0,Calm,Calm,-,N/A,,Clear,0,2013-08-26 00:15:00
8:35 PM,62.6,51.8,68,30.37,10.0,Calm,Calm,-,N/A,,Clear,0,2013-08-26 00:35:00
8:55 PM,62.6,51.8,68,30.38,10.0,Calm,Calm,-,N/A,,Clear,0,2013-08-26 00:55:00
9:15 PM,62.6,51.8,68,30.39,10.0,Calm,Calm,-,N/A,,Clear,0,2013-08-26 01:15:00
9:35 PM,59.0,51.8,77,30.38,10.0,Calm,Calm,-,N/A,,Clear,0,2013-08-26 01:35:00
9:55 PM,59.0,51.8,77,30.38,10.0,Calm,Calm,-,N/A,,Clear,0,2013-08-26 01:55:00
10:15 PM,55.4,51.8,88,30.39,10.0,Calm,Calm,-,N/A,,Clear,0,2013-08-26 02:15:00
10:35 PM,55.4,51.8,88,30.39,10.0,Calm,Calm,-,N/A,,Clear,0,2013-08-26 02:35:00
10:55 PM,55.4,51.8,88,30.40,10.0,NNE,3.5,-,N/A,,Clear,20,2013-08-26 02:55:00
11:15 PM,55.4,51.8,88,30.40,10.0,Calm,Calm,-,N/A,,Clear,0,2013-08-26 03:15:00
11:35 PM,53.6,51.8,94,30.40,10.0,Calm,Calm,-,N/A,,Clear,0,2013-08-26 03:35:00
11:55 PM,53.6,51.8,94,30.40,10.0,Calm,Calm,-,N/A,,Clear,0,2013-08-26 03:55:00